Fecha, hora, temperatura, viento dirección y velocidad, humedad y presión.

  • 11-04-2019 21:00:00 | 11.10°C | Oeste |9.00 km/h | 91.00% | 1018.20 hPa
  • 11-04-2019 20:00:00 | 11.40°C | Noroeste |12.00 km/h | 90.00% | 1017.90 hPa
  • 11-04-2019 19:00:00 | 11.60°C | Noroeste |20.00 km/h | 91.00% | 1017.80 hPa
  • 11-04-2019 18:00:00 | 11.60°C | Oeste |24.00 km/h | 88.00% | 1017.50 hPa
  • 11-04-2019 17:00:00 | 12.10°C | Noroeste |23.00 km/h | 84.00% | 1017.30 hPa
  • 11-04-2019 16:00:00 | 12.40°C | Noroeste |26.00 km/h | 83.00% | 1017.40 hPa
  • 11-04-2019 15:00:00 | 13.40°C | Noroeste |27.00 km/h | 83.00% | 1017.40 hPa
  • 11-04-2019 14:00:00 | 12.20°C | Noroeste |25.00 km/h | 81.00% | 1017.50 hPa
  • 11-04-2019 13:00:00 | 12.60°C | Noroeste |24.00 km/h | 81.00% | 1017.30 hPa
  • 11-04-2019 12:00:00 | 11.50°C | Noroeste |24.00 km/h | 82.00% | 1017.30 hPa
  • 11-04-2019 11:00:00 | 11.60°C | Oeste |23.00 km/h | 81.00% | 1017.00 hPa
  • 11-04-2019 10:00:00 | 11.10°C | Oeste |14.00 km/h | 82.00% | 1016.90 hPa
  • 11-04-2019 09:00:00 | 10.70°C | Oeste |14.00 km/h | 84.00% | 1016.70 hPa
  • 11-04-2019 08:00:00 | 10.60°C | Oeste |18.00 km/h | 87.00% | 1016.40 hPa
  • 11-04-2019 07:00:00 | 9.90°C | Oeste |9.00 km/h | 87.00% | 1016.20 hPa
  • 11-04-2019 06:00:00 | 9.40°C | Oeste |8.00 km/h | 91.00% | 1016.30 hPa
  • 11-04-2019 05:00:00 | 9.20°C | Sudoeste |6.00 km/h | 92.00% | 1016.50 hPa
  • 11-04-2019 04:00:00 | 10.00°C | Oeste |7.00 km/h | 90.00% | 1016.30 hPa
  • 11-04-2019 03:00:00 | 10.00°C | Sudoeste |4.00 km/h | 87.00% | 1016.00 hPa
  • 11-04-2019 02:00:00 | 10.60°C | Oeste |9.00 km/h | 88.00% | 1016.30 hPa
  • 11-04-2019 01:00:00 | 10.50°C | Oeste |11.00 km/h | 84.00% | 1016.50 hPa
  • 11-04-2019 00:00:00 | 10.40°C | Oeste |18.00 km/h | 89.00% | 1016.40 hPa
  • 10-04-2019 23:00:00 | 10.90°C | Oeste |13.00 km/h | 88.00% | 1016.20 hPa
  • 10-04-2019 22:00:00 | 10.90°C | Oeste |9.00 km/h | 89.00% | 1015.70 hPa
    • diseño web asturias Información sobre el estado de las mareas, altura de la marejada, temperatura del agua y otros datos de Gijón en Asturias.

      Surf Gijón